Regional Weather Roundup
Issued by NWS

Home | Current Version | Previous Version | Graphics & Text | Print | Product List | Glossary Off
Versions: 1 2 3 4 5 6 7 8 9 10 11 12 13 14 15 16 17 18 19 20 21 22 23 24 25 26 27 28 29 30 31 32 33 34 35 36 37 38 39 40 41 42 43 44 45 46 47 48 49 50

000
ASUS43 KMKX 222200
RWRWI

WISCONSIN REGIONAL WEATHER ROUNDUP
NATIONAL WEATHER SERVICE MILWAUKEE/SULLIVAN WI
400 PM CST SUN JAN 22 2017

NOTE: "FAIR" INDICATES FEW OR NO CLOUDS BELOW 12,000 FEET WITH NO
SIGNIFICANT WEATHER AND/OR OBSTRUCTIONS TO VISIBILITY.

WIZ001-002-006>008-014>016-023>028-222300-
NORTHWEST WISCONSIN

CITY           SKY/WX    TMP DP  RH WIND       PRES   REMARKS
SUPERIOR ARPT  CLOUDY    38  37  95 CALM      29.70R
ASHLAND        CLOUDY    36  35  96 CALM      29.70R FOG
HAYWARD        CLOUDY    37  34  89 VRB3      29.69R
SIREN          CLOUDY    37  36  97 NW3       29.71R FOG
CUMBERLAND     CLOUDY    34  32  93 NW3       29.69R
RICE LAKE      CLOUDY    37  35  91 CALM      29.70S
CHETEK         CLOUDY    36  35  96 NW3       29.69R
LADYSMITH      CLOUDY    36  36  99 NW6       29.69R WCI  31
EAU CLAIRE     CLOUDY    36  34  92 W3        29.69R
MENOMONIE        N/A    N/A N/A N/A MISG        N/A
NEW RICHMOND   CLOUDY    36  36 100 NW7       29.71S WCI  30
OSCEOLA        CLOUDY    38  38 100 NW3       29.74R
$$

WIZ003>005-009-010-017-018-222300-
NORTH CENTRAL WISCONSIN

CITY           SKY/WX    TMP DP  RH WIND       PRES   REMARKS
MANITOWISH WTR CLOUDY    34  34 100 NW5       29.64R WCI  30
ARBOR VITAE    CLOUDY    37  36  98 N7        29.63S WCI  31
WOODRUFF       CLOUDY    37  36  98 N7        29.63S WCI  31
RHINELANDER    FOG       37  37 100 N3        29.63S VSB 1
EAGLE RIVER    CLOUDY    35  35 100 NW6       29.62S FOG     WCI  30
LAND O LAKES   CLOUDY    36  36 100 NW3       29.64S FOG
PHILLIPS       CLOUDY    35  35 100 N3        29.65R
TOMAHAWK       CLOUDY    36  35  97 W6        29.65R WCI  31
MEDFORD        CLOUDY    35  35 100 NW6       29.64S FOG     WCI  30
MERRILL        CLOUDY    38  38 100 NW3         N/A
$$

WIZ029-030-035-036-043>047-222300-
CENTRAL WISCONSIN

CITY           SKY/WX    TMP DP  RH WIND       PRES   REMARKS
WAUSAU         CLOUDY    36  35  96 W5        29.64R WCI  32
MOSINEE        CLOUDY    36  36 100 NW6       29.65R WCI  31
MARSHFIELD     CLOUDY    35  34  96 NW6       29.65R FOG     WCI  30
STEVENS POINT  CLOUDY    36  36 100 NW3       29.66R
WAUPACA        CLOUDY    39  39  97 CALM      29.66R
WAUTOMA        CLOUDY    37  36  96 NW3       29.67R
WISC RAPIDS    CLOUDY    38  36  92 NW6       29.67R WCI  33
CAMP DOUGLAS   CLOUDY    37  37 100 W6        29.67R WCI  33
$$

WIZ011>013-019>022-031-037>040-048>050-222300-
NORTHEAST WISCONSIN

CITY           SKY/WX    TMP DP  RH WIND       PRES   REMARKS
ANTIGO         CLOUDY    36  36 100 NW6       29.63R WCI  31
SHAWANO        CLOUDY    40  40  97 CALM      29.64S
OCONTO         CLOUDY    37  37  99 CALM      29.64S
STURGEON BAY   FOG       38  37  97 CALM      29.66R VSB 1/4
GREEN BAY      FOG       39  39 100 S3        29.65S VSB 1/4
MANITOWOC      CLOUDY    37  36  93 MISG      29.67R FOG
APPLETON       CLOUDY    37  37 100 CALM      29.63R
CLINTONVILLE   CLOUDY    37  37 100 W3        29.65R
OSHKOSH        CLOUDY    39  37  92 CALM      29.65R
$$

WIZ032>034-041-042-053>061-222300-
SOUTHWEST WISCONSIN

CITY           SKY/WX    TMP DP  RH WIND       PRES   REMARKS
LA CROSSE      CLOUDY    40  36  86 NW8       29.70R WCI  34
SPARTA         CLOUDY    36  36 100 W3        29.69S FOG
VIROQUA        CLOUDY    35  35 100 NW5       29.67R VSB<1/4 WCI  31
BOSCOBEL       CLOUDY    40  36  86 CALM      29.70R
PRAIRIE DU CHI CLOUDY    38  35  90 NW5       29.70R WCI  34
PLATTEVILLE    CLOUDY    40  39  96 NW6       29.67R
$$

WIZ056-057-062-063-064-067-068-222300-
SOUTH CENTRAL WISCONSIN

CITY           SKY/WX    TMP DP  RH WIND       PRES   REMARKS
REEDSBURG      CLOUDY    37  37 100 NW5       29.67R WCI  34
BARABOO/DELLS  CLOUDY    37  37  99 CALM      29.66R
LONE ROCK      NOT AVBL
MINERAL POINT  CLOUDY    41  39  93 NW7       29.66R
MADISON        CLOUDY    40  37  89 NW3       29.67R
MIDDLETON      CLOUDY    40  40 100 NW6       29.66R
WATERTOWN      MOCLDY    40  38  93 NW3       29.65R
MONROE         CLOUDY    41  37  87 NW5       29.65R
JANESVILLE     CLOUDY    41  39  93 N6        29.65S FOG
$$

WIZ051-052-058>065-066-070>072-222300-
SOUTHEAST WISCONSIN

CITY           SKY/WX    TMP DP  RH WIND       PRES   REMARKS
MILWAUKEE      MOCLDY    44  38  79 N5        29.64S
WAUKESHA       CLOUDY    37  36  93 NW7       29.65S WCI  32
MILWAUKEE/TIMM CLOUDY    43  36  75 NW6       29.65R
RACINE         CLOUDY    43  37  79 N6        29.65S
KENOSHA        CLOUDY    42  37  82 NW6       29.64R
FOND DU LAC    CLOUDY    40  35  83 W3        29.66R
SHEBOYGAN      PTCLDY    39  35  86 NW8       29.66R WCI  33
WEST BEND      MOCLDY    41  36  81 CALM      29.65R
JUNEAU         CLOUDY    39  36  87 NW3       29.67R
$$

LSZ147-162-222300-
LAKE SUPERIOR

STATION/POSITION TIME  TEMP    WIND        PRES    WAVE
                       AIR SEA DIR/SP/G            HT/PER
                 (UTC) (F)     (DEG/KT/KT) (MB)    (FT/S)
DEVILS ISLAND    2100   36     340/  2/  3 1006.0R
PORT WING        2040   35     270/  4/  5 1005.8S
SAXON HARBOR     2040   34     300/  5/  6 1005.4R
$$

LMZ867-665-643>646-222300-
LAKE MICHIGAN

STATION/POSITION TIME  TEMP    WIND        PRES    WAVE
                       AIR SEA DIR/SP/G            HT/PER
                 (UTC) (F)     (DEG/KT/KT) (MB)    (FT/S)
NORTHPORT PIER   2040   35     330/  3/  4 1003.7R
SISTER BAY       2050   38        CALM       N/A
KEWAUNEE LAKESHO 2118   38     260/  1/  3 1003.8
SHEBOYGAN LAKESH 2100   35     140/  3/  3 1004.2R
PORT WASHINGTON  2030   41     180/  5/  6 1004.7R
KENOSHA   LAKESH 2100   37     360/  5/  8 1003.7
$$

TC  - TEMPERATURE IN CELSIUS
VSB - VISIBILITY IN STATUTE MILES
WCI - WIND CHILL INDEX
HX  - HEAT INDEX




USA.gov is the U.S. government's official web portal to all federal, state and local government web resources and services.